RYR6CN GCLP-EIDW

Flight info

Callsign RYR6CN
Flight time N/A
Altitude 36000
Route VASTO DCT NIDEB DCT TIGGI/N0439F380 DCT IBIDO DCT XERES DCT ADVAT/M076F370 T290 GELPO DCT JABEX/N0437F370 DCT BIBLA DCT SOVIX DCT CML DCT SUTEX SUTEX4L
Aircraft B738/M-SDE2E3FGHIRWXY/LB1

Departure

Time N/A
Airport Gran Canaria Airport (GCLP)

Arrival

Time 2026-05-05 01:52
Airport Dublin Airport (EIDW)
Time Latitude Longitude Altitude Speed Heading
2026-05-05 00:34 46.27687 -9.48107 36055 ft 452 kts 360°
2026-05-05 00:34 46.33933 -9.48162 36045 ft 452 kts
2026-05-05 00:35 46.40230 -9.48218 36058 ft 452 kts
2026-05-05 00:35 46.46522 -9.48274 36057 ft 451 kts
2026-05-05 00:36 46.52808 -9.48330 36052 ft 451 kts
2026-05-05 00:36 46.59060 -9.48386 36055 ft 451 kts
2026-05-05 00:37 46.65351 -9.48443 36048 ft 451 kts
2026-05-05 00:37 46.71627 -9.48499 36052 ft 451 kts
2026-05-05 00:38 46.77907 -9.48556 36049 ft 451 kts
2026-05-05 00:38 46.84181 -9.48613 36050 ft 451 kts
2026-05-05 00:39 46.90427 -9.48669 36049 ft 451 kts
2026-05-05 00:39 46.96702 -9.48726 36049 ft 451 kts
2026-05-05 00:40 47.02978 -9.48783 36052 ft 451 kts
2026-05-05 00:40 47.09253 -9.48841 36052 ft 451 kts
2026-05-05 00:41 47.15530 -9.48898 36053 ft 451 kts
2026-05-05 00:41 47.21810 -9.48956 36051 ft 450 kts
2026-05-05 00:42 47.28050 -9.49013 36052 ft 450 kts
2026-05-05 00:42 47.34318 -9.49071 36055 ft 450 kts
2026-05-05 00:43 47.40587 -9.49129 36053 ft 450 kts
2026-05-05 00:43 47.46854 -9.49187 36057 ft 450 kts
2026-05-05 00:44 47.53120 -9.49245 36057 ft 450 kts
2026-05-05 00:44 47.59398 -9.49303 36058 ft 450 kts
2026-05-05 00:45 47.65630 -9.49361 36059 ft 450 kts
2026-05-05 00:45 47.71895 -9.49420 36061 ft 450 kts
2026-05-05 00:46 47.78162 -9.49478 36062 ft 450 kts
2026-05-05 00:46 47.84420 -9.49537 36063 ft 449 kts
2026-05-05 00:47 47.90675 -9.49596 36063 ft 449 kts
2026-05-05 00:47 47.96929 -9.49655 36065 ft 449 kts
2026-05-05 00:48 48.03131 -9.49714 36068 ft 449 kts
2026-05-05 00:48 48.09378 -9.49773 36069 ft 448 kts
2026-05-05 00:49 48.15625 -9.49832 36072 ft 448 kts
2026-05-05 00:49 48.21865 -9.49892 36073 ft 448 kts
2026-05-05 00:50 48.28099 -9.49951 36073 ft 448 kts
2026-05-05 00:50 48.34292 -9.50010 36075 ft 447 kts
2026-05-05 00:51 48.40513 -9.50070 36071 ft 447 kts
2026-05-05 00:51 48.46738 -9.50130 36079 ft 446 kts
2026-05-05 00:52 48.52951 -9.50190 36080 ft 446 kts
2026-05-05 00:52 48.59158 -9.50250 36079 ft 445 kts
2026-05-05 00:53 48.65313 -9.50307 36077 ft 445 kts
2026-05-05 00:53 48.71507 -9.50314 36081 ft 444 kts
2026-05-05 00:54 48.77689 -9.50304 36085 ft 444 kts
2026-05-05 00:54 48.83866 -9.50300 36087 ft 443 kts
2026-05-05 00:55 48.90048 -9.50300 36086 ft 443 kts
2026-05-05 00:55 48.96167 -9.50300 36085 ft 442 kts
2026-05-05 00:56 49.02302 -9.49830 36087 ft 440 kts 10°
2026-05-05 00:56 49.08330 -9.48217 36083 ft 439 kts 11°
2026-05-05 00:57 49.14342 -9.46533 36090 ft 439 kts 11°
2026-05-05 00:57 49.20347 -9.44887 36089 ft 438 kts 11°
2026-05-05 00:58 49.26364 -9.43265 36093 ft 438 kts 11°
2026-05-05 00:58 49.32366 -9.41654 36087 ft 438 kts 11°
2026-05-05 00:59 49.38328 -9.40050 36089 ft 437 kts 11°
2026-05-05 00:59 49.44329 -9.38431 36092 ft 437 kts 11°
2026-05-05 01:00 49.50321 -9.36810 36093 ft 436 kts 11°
2026-05-05 01:00 49.56296 -9.35189 36095 ft 436 kts 11°
2026-05-05 01:01 49.62241 -9.33572 36095 ft 436 kts 11°
2026-05-05 01:01 49.68214 -9.31943 36097 ft 435 kts 11°
2026-05-05 01:02 49.74191 -9.30310 36097 ft 435 kts 11°
2026-05-05 01:02 49.80117 -9.28686 36094 ft 435 kts 12°
2026-05-05 01:03 49.86080 -9.27048 36101 ft 435 kts 12°
2026-05-05 01:03 49.92045 -9.25405 36103 ft 435 kts 12°
2026-05-05 01:04 49.98005 -9.23760 36099 ft 434 kts 12°
2026-05-05 01:04 50.06916 -9.21292 36100 ft 435 kts 12°
2026-05-05 01:05 50.12875 -9.19637 36099 ft 435 kts 12°
2026-05-05 01:05 50.18837 -9.17976 36100 ft 435 kts 12°
2026-05-05 01:06 50.24760 -9.16322 36099 ft 435 kts 11°
2026-05-05 01:06 50.30724 -9.14652 36100 ft 435 kts 11°
2026-05-05 01:07 50.36706 -9.12974 36103 ft 436 kts 11°
2026-05-05 01:07 50.42680 -9.11293 36103 ft 436 kts 11°
2026-05-05 01:08 50.48664 -9.09604 36100 ft 437 kts 11°
2026-05-05 01:08 50.54619 -9.07920 36106 ft 437 kts 11°
2026-05-05 01:09 50.60618 -9.06219 36107 ft 438 kts 11°
2026-05-05 01:09 50.66616 -9.04514 36107 ft 438 kts 11°
2026-05-05 01:10 50.72628 -9.02800 36109 ft 439 kts 11°
2026-05-05 01:10 50.78603 -9.01093 36109 ft 439 kts 11°
2026-05-05 01:11 50.84626 -8.99367 36110 ft 440 kts 11°
2026-05-05 01:11 50.90663 -8.97633 36108 ft 440 kts 11°
2026-05-05 01:12 50.96700 -8.95894 36113 ft 441 kts 11°
2026-05-05 01:12 51.02743 -8.94148 36114 ft 441 kts 11°
2026-05-05 01:13 51.08742 -8.92412 36107 ft 441 kts 11°
2026-05-05 01:13 51.14566 -8.89377 36109 ft 441 kts 26°
2026-05-05 01:14 51.19702 -8.84010 36111 ft 442 kts 36°
2026-05-05 01:14 51.24616 -8.78054 36102 ft 443 kts 36°
2026-05-05 01:15 51.29514 -8.72162 36102 ft 444 kts 36°
2026-05-05 01:15 51.34468 -8.66257 36100 ft 444 kts 36°
2026-05-05 01:16 51.39424 -8.60345 36098 ft 444 kts 36°
2026-05-05 01:16 51.44311 -8.54615 36095 ft 444 kts 33°
2026-05-05 01:17 51.49496 -8.49228 36096 ft 445 kts 31°
2026-05-05 01:17 51.54711 -8.43965 36094 ft 445 kts 32°
2026-05-05 01:18 51.59930 -8.38629 36088 ft 440 kts 32°
2026-05-05 01:18 51.62456 -8.36020 36076 ft 423 kts 32°
2026-05-05 01:18 51.64884 -8.33501 36078 ft 407 kts 32°
2026-05-05 01:19 51.68849 -8.29376 36100 ft 403 kts 32°
2026-05-05 01:19 51.73533 -8.24492 36110 ft 404 kts 32°
2026-05-05 01:20 51.78256 -8.19557 36104 ft 404 kts 32°
2026-05-05 01:20 51.82988 -8.14599 36102 ft 405 kts 32°
2026-05-05 01:21 51.87735 -8.09613 36096 ft 406 kts 32°
2026-05-05 01:21 51.92444 -8.04655 36095 ft 407 kts 32°
2026-05-05 01:22 51.97201 -7.99633 35743 ft 412 kts 32°
2026-05-05 01:22 51.99584 -7.97111 35408 ft 406 kts 32°
2026-05-05 01:22 52.01943 -7.94613 34983 ft 403 kts 32°
2026-05-05 01:23 52.04281 -7.92133 34588 ft 399 kts 32°
2026-05-05 01:23 52.06598 -7.89673 34199 ft 396 kts 32°
2026-05-05 01:23 52.08893 -7.87232 33753 ft 393 kts 32°
2026-05-05 01:23 52.11168 -7.84811 33328 ft 390 kts 32°
2026-05-05 01:24 52.13428 -7.82402 32928 ft 386 kts 32°
2026-05-05 01:24 52.15663 -7.80017 32541 ft 382 kts 32°
2026-05-05 01:24 52.17872 -7.77657 32149 ft 378 kts 32°
2026-05-05 01:24 52.20072 -7.75304 31770 ft 375 kts 33°
2026-05-05 01:25 52.22215 -7.73008 31401 ft 372 kts 33°
2026-05-05 01:25 52.24371 -7.70696 31032 ft 369 kts 33°
2026-05-05 01:25 52.26513 -7.68397 30664 ft 367 kts 33°
2026-05-05 01:25 52.28641 -7.66110 30300 ft 365 kts 33°
2026-05-05 01:26 52.30755 -7.63835 29891 ft 362 kts 33°
2026-05-05 01:26 52.32848 -7.61580 29497 ft 359 kts 33°
2026-05-05 01:26 52.34921 -7.59344 29115 ft 355 kts 33°
2026-05-05 01:26 52.36969 -7.57133 28728 ft 352 kts 33°
2026-05-05 01:27 52.39003 -7.54934 28360 ft 348 kts 33°
2026-05-05 01:27 52.41017 -7.52755 27987 ft 345 kts 33°
2026-05-05 01:27 52.43015 -7.50590 27612 ft 343 kts 33°
2026-05-05 01:27 52.44999 -7.48430 27244 ft 340 kts 34°
2026-05-05 01:28 52.46839 -7.46013 26868 ft 339 kts 40°
2026-05-05 01:28 52.48595 -7.43442 26502 ft 337 kts 41°
2026-05-05 01:28 52.50325 -7.40861 26142 ft 335 kts 41°
2026-05-05 01:28 52.52040 -7.38296 25783 ft 333 kts 41°
2026-05-05 01:29 52.53728 -7.35779 25439 ft 331 kts 41°
2026-05-05 01:29 52.55435 -7.33240 25090 ft 329 kts 41°
2026-05-05 01:29 52.57132 -7.30720 24741 ft 328 kts 41°
2026-05-05 01:29 52.58825 -7.28207 24388 ft 327 kts 41°
2026-05-05 01:30 52.60515 -7.25698 24022 ft 326 kts 41°
2026-05-05 01:30 52.62201 -7.23195 23669 ft 325 kts 41°
2026-05-05 01:30 52.63877 -7.20705 23260 ft 324 kts 41°
2026-05-05 01:30 52.65548 -7.18219 22891 ft 322 kts 41°
2026-05-05 01:31 52.67189 -7.15775 22538 ft 320 kts 41°
2026-05-05 01:31 52.68838 -7.13318 22184 ft 318 kts 41°
2026-05-05 01:31 52.70477 -7.10872 21837 ft 316 kts 41°
2026-05-05 01:31 52.72102 -7.08444 21499 ft 314 kts 41°
2026-05-05 01:32 52.73722 -7.06023 21161 ft 313 kts 41°
2026-05-05 01:32 52.75327 -7.03619 20819 ft 311 kts 41°
2026-05-05 01:32 52.76929 -7.01219 20480 ft 310 kts 41°
2026-05-05 01:32 52.78523 -6.98830 20156 ft 309 kts 41°
2026-05-05 01:33 52.80113 -6.96443 19821 ft 308 kts 41°
2026-05-05 01:33 52.81699 -6.94059 19489 ft 307 kts 41°
2026-05-05 01:33 52.83282 -6.91682 19074 ft 310 kts 41°
2026-05-05 01:33 52.84888 -6.89277 18672 ft 312 kts 41°
2026-05-05 01:34 52.86480 -6.86891 18292 ft 313 kts 41°
2026-05-05 01:34 52.88091 -6.84475 17906 ft 312 kts 41°
2026-05-05 01:34 52.89692 -6.82070 17552 ft 311 kts 41°
2026-05-05 01:34 52.91290 -6.79667 17212 ft 309 kts 41°
2026-05-05 01:35 52.92878 -6.77276 16876 ft 307 kts 41°
2026-05-05 01:35 52.94454 -6.74900 16543 ft 306 kts 41°
2026-05-05 01:35 52.96026 -6.72529 16217 ft 304 kts 41°
2026-05-05 01:35 52.97062 -6.70966 16001 ft 303 kts 41°
2026-05-05 01:36 52.98387 -6.68963 15717 ft 302 kts 41°
2026-05-05 01:36 52.99936 -6.66621 15400 ft 301 kts 41°
2026-05-05 01:36 53.01435 -6.64208 15064 ft 300 kts 44°
2026-05-05 01:36 53.02875 -6.61706 14729 ft 300 kts 45°
2026-05-05 01:37 53.04289 -6.59210 14404 ft 299 kts 45°
2026-05-05 01:37 53.05713 -6.56697 14072 ft 299 kts 45°
2026-05-05 01:37 53.07140 -6.54188 13725 ft 298 kts 45°
2026-05-05 01:37 53.08564 -6.51691 13367 ft 297 kts 45°
2026-05-05 01:38 53.09985 -6.49202 13036 ft 296 kts 45°
2026-05-05 01:38 53.11402 -6.46722 12697 ft 295 kts 45°
2026-05-05 01:38 53.12815 -6.44250 12382 ft 293 kts 45°
2026-05-05 01:38 53.14216 -6.41795 12052 ft 292 kts 45°
2026-05-05 01:39 53.15611 -6.39350 11735 ft 290 kts 45°
2026-05-05 01:39 53.16711 -6.36555 11403 ft 291 kts 70°
2026-05-05 01:39 53.17008 -6.33287 11107 ft 290 kts 91°
2026-05-05 01:39 53.16864 -6.29953 10810 ft 288 kts 95°
2026-05-05 01:40 53.16667 -6.26633 10491 ft 287 kts 95°
2026-05-05 01:40 53.16468 -6.23314 10231 ft 284 kts 95°
2026-05-05 01:40 53.16282 -6.20076 10056 ft 278 kts 95°
2026-05-05 01:40 53.16107 -6.16864 9727 ft 278 kts 94°
2026-05-05 01:41 53.15936 -6.13661 9413 ft 277 kts 94°
2026-05-05 01:41 53.15766 -6.10469 9109 ft 276 kts 94°
2026-05-05 01:41 53.15598 -6.07298 8801 ft 274 kts 94°
2026-05-05 01:41 53.15429 -6.04138 8509 ft 273 kts 94°
2026-05-05 01:42 53.15261 -6.00991 8190 ft 273 kts 94°
2026-05-05 01:42 53.15091 -5.97850 7889 ft 272 kts 94°
2026-05-05 01:42 53.14921 -5.94714 7596 ft 271 kts 94°
2026-05-05 01:42 53.14755 -5.91670 7369 ft 262 kts 94°
2026-05-05 01:43 53.14602 -5.88731 7247 ft 247 kts 90°
2026-05-05 01:43 53.14955 -5.86042 7144 ft 235 kts 59°
2026-05-05 01:43 53.16024 -5.84058 7013 ft 231 kts 31°
2026-05-05 01:43 53.17508 -5.83093 6823 ft 229 kts
2026-05-05 01:44 53.19085 -5.83199 6604 ft 226 kts 345°
2026-05-05 01:44 53.20591 -5.83910 6383 ft 225 kts 340°
2026-05-05 01:44 53.22079 -5.84722 6142 ft 224 kts 340°
2026-05-05 01:44 53.23560 -5.85540 5920 ft 223 kts 340°
2026-05-05 01:45 53.25036 -5.86350 5697 ft 222 kts 340°
2026-05-05 01:45 53.26501 -5.87147 5485 ft 220 kts 340°
2026-05-05 01:45 53.27938 -5.87924 5274 ft 219 kts 340°
2026-05-05 01:45 53.29385 -5.88703 5060 ft 218 kts 340°
2026-05-05 01:46 53.30821 -5.89475 4848 ft 216 kts 340°
2026-05-05 01:46 53.32253 -5.90243 4635 ft 215 kts 341°
2026-05-05 01:46 53.33672 -5.91003 4418 ft 214 kts 341°
2026-05-05 01:46 53.35088 -5.91761 4191 ft 214 kts 341°
2026-05-05 01:47 53.36518 -5.92528 3934 ft 216 kts 341°
2026-05-05 01:47 53.37950 -5.93295 3705 ft 215 kts 341°
2026-05-05 01:47 53.39364 -5.94093 3495 ft 214 kts 334°
2026-05-05 01:47 53.39992 -5.94791 3345 ft 214 kts 314°
2026-05-05 01:48 53.40582 -5.97000 3164 ft 211 kts 276°
2026-05-05 01:48 53.40652 -5.99408 3039 ft 202 kts 276°
2026-05-05 01:48 53.40771 -6.01680 2973 ft 190 kts 277°
2026-05-05 01:48 53.40889 -6.03842 2779 ft 184 kts 277°
2026-05-05 01:49 53.41002 -6.05955 2540 ft 179 kts 277°
2026-05-05 01:49 53.41109 -6.07981 2288 ft 170 kts 277°
2026-05-05 01:49 53.41208 -6.09869 2057 ft 160 kts 277°
2026-05-05 01:49 53.41303 -6.11655 1861 ft 148 kts 277°
2026-05-05 01:50 53.41392 -6.13315 1700 ft 136 kts 278°
2026-05-05 01:50 53.41476 -6.14880 1484 ft 133 kts 277°
2026-05-05 01:50 53.41558 -6.16397 1304 ft 131 kts 277°
2026-05-05 01:50 53.41640 -6.17922 1102 ft 130 kts 277°
2026-05-05 01:51 53.41720 -6.19421 912 ft 129 kts 276°
2026-05-05 01:51 53.41801 -6.20905 734 ft 128 kts 276°
2026-05-05 01:51 53.41881 -6.22380 565 ft 127 kts 276°
2026-05-05 01:51 53.41961 -6.23864 384 ft 127 kts 275°
2026-05-05 01:52 53.42039 -6.25301 233 ft 125 kts 275°
2026-05-05 01:52 53.42111 -6.26594 210 ft 78 kts 275°
2026-05-05 01:52 53.42146 -6.27236 209 ft 50 kts 275°
2026-05-05 01:52 53.42173 -6.27705 209 ft 37 kts 282°
2026-05-05 01:53 53.42261 -6.28025 213 ft 16 kts 300°
2026-05-05 01:53 53.42337 -6.28124 212 ft 12 kts 15°
2026-05-05 01:53 53.42360 -6.28006 212 ft 12 kts 95°
2026-05-05 01:53 53.42353 -6.27874 210 ft 11 kts 95°
2026-05-05 01:54 53.42346 -6.27746 210 ft 11 kts 95°
2026-05-05 01:54 53.42338 -6.27602 210 ft 14 kts 95°
2026-05-05 01:54 53.42329 -6.27443 210 ft 13 kts 95°
2026-05-05 01:54 53.42321 -6.27295 217 ft 13 kts 95°
2026-05-05 01:55 53.42313 -6.27150 212 ft 12 kts 95°
2026-05-05 01:55 53.42305 -6.27008 218 ft 12 kts 95°
2026-05-05 01:55 53.42298 -6.26870 210 ft 12 kts 95°
2026-05-05 01:55 53.42290 -6.26735 210 ft 11 kts 95°
2026-05-05 01:56 53.42283 -6.26604 210 ft 11 kts 95°
2026-05-05 01:56 53.42276 -6.26474 217 ft 12 kts 95°
2026-05-05 01:56 53.42268 -6.26329 210 ft 14 kts 95°
2026-05-05 01:56 53.42258 -6.26149 210 ft 16 kts 95°
2026-05-05 01:57 53.42277 -6.25959 213 ft 17 kts 64°
2026-05-05 01:57 53.42353 -6.25814 215 ft 15 kts 45°
2026-05-05 01:57 53.42425 -6.25690 210 ft 14 kts 45°
2026-05-05 01:57 53.42493 -6.25575 211 ft 14 kts 45°
2026-05-05 01:58 53.42558 -6.25465 209 ft 13 kts 45°
2026-05-05 01:58 53.42639 -6.25432 210 ft 13 kts 339°
2026-05-05 01:58 53.42721 -6.25490 214 ft 13 kts 336°
2026-05-05 01:58 53.42801 -6.25547 215 ft 12 kts 336°
2026-05-05 01:59 53.42827 -6.25566 220 ft 12 kts 336°
2026-05-05 01:59 53.42895 -6.25616 213 ft 11 kts 336°
2026-05-05 01:59 53.42968 -6.25670 214 ft 12 kts 336°
2026-05-05 02:00 53.43049 -6.25730 217 ft 13 kts 336°
2026-05-05 02:00 53.43126 -6.25699 215 ft 13 kts 54°
2026-05-05 02:00 53.43160 -6.25563 215 ft 13 kts 82°
2026-05-05 02:00 53.43106 -6.25468 216 ft 12 kts 156°
2026-05-05 02:01 53.43028 -6.25411 212 ft 12 kts 156°
2026-05-05 02:01 53.42956 -6.25352 212 ft 12 kts 137°
2026-05-05 02:01 53.42963 -6.25225 212 ft 11 kts 80°
2026-05-05 02:01 53.42958 -6.25098 210 ft 10 kts 95°
2026-05-05 02:02 53.42964 -6.25010 212 ft 5 kts 44°
2026-05-05 02:02 53.42970 -6.25012 210 ft 2 kts 357°
2026-05-05 02:02 53.42999 -6.25010 216 ft 4 kts
2026-05-05 02:02 53.43011 -6.25009 212 ft 0 kts